This demonstration page uses our WeatherBlox Daily Observations layout. Learn more.

41.55636, -103.73856

Hourly Observations for December 19, 2015

Temp ( °F °C ) Dew Point ( °F °C ) Humidity (%) Winds ( mph kmh ) Pressure ( in mb ) Visibility ( mi km ) Precip ( " mm )
12:53 am 00:53 Clear 18 -7.8 14 -10 84 84 Calm 30.16 1021 10 16.0934 0 0
1:53 am 01:53 Clear 16 -8.9 12 -11.1 84 84 ENE 6 9 30.18 1022 10 16.0934 0 0
2:53 am 02:53 Clear 15 -9.4 10 -12.2 80 80 E 6 9 30.17 1022 10 16.0934 0 0
3:53 am 03:53 Clear 12 -11.1 9 -12.8 87 87 Calm 30.18 1022 9 14.48406 0 0
4:53 am 04:53 Clear 15 -9.4 12 -11.1 88 88 E 3 6 30.17 1022 10 16.0934 0 0
5:53 am 05:53 Clear 13 -10.6 10 -12.2 88 88 Calm 30.18 1022 10 16.0934 0 0
6:53 am 06:53 Clear 12 -11.1 8 -13.3 84 84 NNE 6 9 30.16 1022 10 16.0934 0 0
7:53 am 07:53 Sunny 13 -10.6 9 -12.8 84 84 Calm 30.16 1022 10 16.0934 0 0
8:53 am 08:53 Sunny 16 -8.9 12 -11.1 84 84 N 3 6 30.15 1021 10 16.0934 0 0
9:53 am 09:53 Sunny 24 -4.4 18 -7.8 77 77 Calm 30.12 1020 9 14.48406 0 0
10:53 am 10:53 Sunny 27 -2.8 20 -6.7 75 75 Calm 30.08 1019 10 16.0934 0 0
11:53 am 11:53 Sunny 29 -1.7 21 -6.1 72 72 Calm 30.04 1017 10 16.0934 0 0
12:53 pm 12:53 Sunny 34 1.1 21 -6.1 59 59 Calm 29.99 1016 10 16.0934 0 0
1:53 pm 13:53 Sunny 35 1.7 22 -5.6 59 59 ESE 7 11 29.96 1014 10 16.0934 0 0
2:53 pm 14:53 Sunny 33 0.6 24 -4.4 70 70 SE 5 7 29.97 1015 10 16.0934 0 0
3:53 pm 15:53 Sunny 29 -1.7 22 -5.6 75 75 Calm 29.98 1015 10 16.0934 0 0
4:53 pm 16:53 Clear 28 -2.2 20 -6.7 72 72 SSE 6 9 29.98 1015 10 16.0934 0 0
5:53 pm 17:53 Clear 22 -5.6 17 -8.3 82 82 ENE 5 7 29.99 1016 10 16.0934 0 0
6:53 pm 18:53 Clear 20 -6.7 15 -9.4 81 81 ENE 7 11 30 1016 10 16.0934 0 0
7:53 pm 19:53 Clear 20 -6.7 16 -8.9 85 85 ENE 3 6 29.98 1015 10 16.0934 0 0
8:53 pm 20:53 Clear 17 -8.3 14 -10 88 88 N 5 7 29.98 1015 10 16.0934 0 0
9:53 pm 21:53 Clear 20 -6.7 16 -8.9 85 85 NW 5 7 29.92 1013 9 14.48406 0 0
10:53 pm 22:53 Clear 21 -6.1 17 -8.3 85 85 NNW 9 15 29.9 1012 8 12.87472 0 0
11:53 pm 23:53 Clear 20 -6.7 17 -8.3 89 89 NW 6 9 29.86 1011 9 14.48406 0 0

Powered by AerisWeather